| time (UTC) | temp F | wind direction | speed MPH | gust MPH | rain 1hr in | rain 24hr in | rain mn in | humidity % | barometer mb |
| 20260905034514 | 75 | 144 | 1.0 | 3.0 | 0.00 | 0.00 | 0.00 | 86 | 1014.6 |
| 20260905033021 | 75 | 145 | 2.0 | 7.0 | 0.00 | 0.00 | 0.00 | 86 | 1014.6 |
| 20260905031512 | 76 | 165 | 2.0 | 8.0 | 0.00 | 0.00 | 0.00 | 85 | 1014.5 |
| 20260905030013 | 76 | 153 | 4.0 | 8.0 | 0.00 | 0.00 | 0.00 | 85 | 1014.6 |
| 20260905024509 | 76 | 159 | 1.0 | 8.0 | 0.00 | 0.00 | 0.00 | 84 | 1014.4 |
| 20260905023008 | 77 | 162 | 1.0 | 5.0 | 0.00 | 0.00 | 0.00 | 83 | 1014.4 |
| 20260905021508 | 77 | 161 | 1.0 | 7.0 | 0.00 | 0.00 | 0.00 | 83 | 1014.0 |
| 20260905020008 | 77 | 140 | 3.0 | 7.0 | 0.00 | 0.00 | 0.00 | 83 | 1014.0 |
| 20260905014507 | 77 | 147 | 1.0 | 4.0 | 0.00 | 0.00 | 0.00 | 82 | 1013.6 |
| 20260905013013 | 78 | 132 | 0.0 | 0.0 | 0.00 | 0.00 | 0.00 | 82 | 1013.1 |
| 20260905011506 | 78 | 180 | 0.0 | 0.0 | 0.00 | 0.00 | 0.00 | 81 | 1012.8 |
| 20260905010005 | 78 | 10 | 0.0 | 1.0 | 0.00 | 0.00 | 0.00 | 80 | 1012.8 |
| 20260905004505 | 79 | 12 | 0.0 | 3.0 | 0.00 | 0.00 | 0.00 | 79 | 1012.7 |
| 20260905003005 | 79 | 19 | 1.0 | 6.0 | 0.00 | 0.00 | 0.00 | 78 | 1012.8 |
| 20260905001504 | 81 | 45 | 3.0 | 11.0 | 0.00 | 0.00 | 0.00 | 77 | 1012.9 |
| 20260905000009 | 83 | 78 | 3.0 | 7.0 | 0.00 | 0.00 | 0.00 | 72 | 1011.9 |
| 20260904234506 | 83 | 132 | 5.0 | 10.0 | 0.00 | 0.00 | 0.00 | 72 | 1011.7 |
| 20260904233002 | 85 | 67 | 3.0 | 15.0 | 0.00 | 0.00 | 0.00 | 68 | 1011.8 |
| 20260904231507 | 87 | 5 | 11.0 | 24.0 | 0.00 | 0.00 | 0.00 | 63 | 1013.1 |
| 20260904230001 | 90 | 336 | 6.0 | 13.0 | 0.00 | 0.00 | 0.00 | 57 | 1013.2 |
| 20260904224600 | 91 | 46 | 2.0 | 9.0 | 0.00 | 0.00 | 0.00 | 55 | 1012.1 |
| 20260904223100 | 92 | 49 | 1.0 | 7.0 | 0.00 | 0.00 | 0.00 | 54 | 1011.9 |
| 20260904221602 | 92 | 345 | 3.0 | 6.0 | 0.00 | 0.00 | 0.00 | 54 | 1012.0 |
| 20260904220104 | 92 | 27 | 2.0 | 4.0 | 0.00 | 0.00 | 0.00 | 54 | 1011.9 |
| 20260904214601 | 92 | 17 | 2.0 | 6.0 | 0.00 | 0.00 | 0.00 | 53 | 1011.8 |
| 20260904213058 | 93 | 355 | 3.0 | 8.0 | 0.00 | 0.00 | 0.00 | 51 | 1011.8 |
| 20260904211557 | 92 | 36 | 3.0 | 7.0 | 0.00 | 0.00 | 0.00 | 53 | 1011.8 |
| 20260904210057 | 91 | 343 | 2.0 | 8.0 | 0.00 | 0.00 | 0.00 | 55 | 1011.7 |
| 20260904204556 | 91 | 340 | 6.0 | 18.0 | 0.00 | 0.00 | 0.00 | 54 | 1011.8 |
| 20260904203056 | 97 | 38 | 8.0 | 19.0 | 0.00 | 0.00 | 0.00 | 45 | 1011.8 |
| 20260904201602 | 98 | 278 | 3.0 | 8.0 | 0.00 | 0.00 | 0.00 | 44 | 1011.4 |
| 20260904200059 | 98 | 255 | 2.0 | 10.0 | 0.00 | 0.00 | 0.00 | 42 | 1011.7 |
| 20260904194554 | 98 | 292 | 2.0 | 7.0 | 0.00 | 0.00 | 0.00 | 43 | 1011.9 |
| 20260904193050 | 97 | 260 | 2.0 | 6.0 | 0.00 | 0.00 | 0.00 | 45 | 1011.9 |
| 20260904191546 | 97 | 275 | 0.0 | 4.0 | 0.00 | 0.00 | 0.00 | 49 | 1012.2 |
| 20260904190143 | 96 | 280 | 0.0 | 3.0 | 0.00 | 0.00 | 0.00 | 48 | 1012.4 |
| 20260904184541 | 95 | 300 | 0.0 | 9.0 | 0.00 | 0.00 | 0.00 | 49 | 1012.7 |
| 20260904183053 | 94 | 355 | 3.0 | 10.0 | 0.00 | 0.00 | 0.00 | 50 | 1013.2 |
| 20260904181540 | 95 | 250 | 1.0 | 7.0 | 0.00 | 0.00 | 0.00 | 49 | 1013.4 |
| 20260904180033 | 96 | 318 | 0.0 | 7.0 | 0.00 | 0.00 | 0.00 | 50 | 1013.6 |
| 20260904174533 | 95 | 17 | 3.0 | 9.0 | 0.00 | 0.00 | 0.00 | 49 | 1013.8 |
| 20260904173029 | 95 | 295 | 2.0 | 9.0 | 0.00 | 0.00 | 0.00 | 50 | 1013.8 |
| 20260904171528 | 95 | 304 | 3.0 | 8.0 | 0.00 | 0.00 | 0.00 | 51 | 1013.9 |
| 20260904170026 | 95 | 328 | 1.0 | 12.0 | 0.00 | 0.00 | 0.00 | 51 | 1014.1 |
| 20260904164524 | 94 | 345 | 1.0 | 10.0 | 0.00 | 0.00 | 0.00 | 51 | 1014.3 |
| 20260904163023 | 93 | 248 | 2.0 | 11.0 | 0.00 | 0.00 | 0.00 | 54 | 1014.5 |
| 20260904161520 | 93 | 284 | 3.0 | 9.0 | 0.00 | 0.00 | 0.00 | 54 | 1014.5 |
| 20260904160022 | 93 | 350 | 6.0 | 11.0 | 0.00 | 0.00 | 0.00 | 55 | 1014.6 |
| 20260904154519 | 91 | 332 | 5.0 | 13.0 | 0.00 | 0.00 | 0.00 | 58 | 1014.8 |
| 20260904153020 | 92 | 289 | 4.0 | 11.0 | 0.00 | 0.00 | 0.00 | 58 | 1014.8 |
| 20260904151510 | 90 | 344 | 2.0 | 10.0 | 0.00 | 0.00 | 0.00 | 62 | 1014.8 |
| 20260904150005 | 90 | 306 | 0.0 | 5.0 | 0.00 | 0.00 | 0.00 | 61 | 1014.9 |
| 20260904144500 | 89 | 333 | 2.0 | 4.0 | 0.00 | 0.00 | 0.00 | 64 | 1014.9 |
| 20260904143057 | 88 | 311 | 4.0 | 6.0 | 0.00 | 0.00 | 0.00 | 65 | 1014.9 |
| 20260904141553 | 88 | 319 | 3.0 | 6.0 | 0.00 | 0.00 | 0.00 | 66 | 1014.9 |
| 20260904140049 | 87 | 279 | 0.0 | 4.0 | 0.00 | 0.00 | 0.00 | 69 | 1015.0 |
| 20260904134544 | 86 | 242 | 0.0 | 1.0 | 0.00 | 0.00 | 0.00 | 70 | 1014.9 |
| 20260904133046 | 85 | 223 | 3.0 | 5.0 | 0.00 | 0.00 | 0.00 | 72 | 1014.8 |
| 20260904131542 | 84 | 248 | 1.0 | 3.0 | 0.00 | 0.00 | 0.00 | 74 | 1015.0 |
| 20260904130032 | 82 | 239 | 0.0 | 4.0 | 0.00 | 0.00 | 0.00 | 76 | 1015.1 |
| 20260904124527 | 81 | 322 | 1.0 | 4.0 | 0.00 | 0.00 | 0.00 | 78 | 1015.3 |
| 20260904123023 | 80 | 332 | 0.0 | 0.0 | 0.00 | 0.00 | 0.00 | 79 | 1015.1 |
| 20260904121519 | 79 | 105 | 0.0 | 0.0 | 0.00 | 0.00 | 0.00 | 81 | 1015.2 |
| 20260904120020 | 78 | 107 | 0.0 | 0.0 | 0.00 | 0.00 | 0.00 | 82 | 1015.1 |
| 20260904114509 | 77 | 108 | 0.0 | 0.0 | 0.00 | 0.00 | 0.00 | 84 | 1015.1 |
| 20260904113014 | 75 | 108 | 0.0 | 0.0 | 0.00 | 0.00 | 0.00 | 85 | 1015.1 |
| 20260904111502 | 75 | 108 | 0.0 | 0.0 | 0.00 | 0.00 | 0.00 | 86 | 1015.0 |
| 20260904104600 | 75 | 107 | 0.0 | 0.0 | 0.00 | 0.00 | 0.00 | 84 | 1014.8 |
| 20260904103059 | 76 | 107 | 0.0 | 0.0 | 0.00 | 0.00 | 0.00 | 83 | 1014.7 |
| 20260904101559 | 76 | 107 | 0.0 | 0.0 | 0.00 | 0.00 | 0.00 | 83 | 1014.5 |
| 20260904100107 | 76 | 106 | 0.0 | 0.0 | 0.00 | 0.00 | 0.00 | 82 | 1014.5 |
| 20260904094604 | 77 | 103 | 0.0 | 0.0 | 0.00 | 0.00 | 0.00 | 81 | 1014.6 |
| 20260904093051 | 77 | 94 | 0.0 | 0.0 | 0.00 | 0.00 | 0.00 | 80 | 1014.6 |
| 20260904091602 | 78 | 92 | 0.0 | 0.0 | 0.00 | 0.00 | 0.00 | 78 | 1014.5 |
| 20260904090046 | 79 | 49 | 0.0 | 0.0 | 0.00 | 0.00 | 0.00 | 78 | 1014.4 |
| 20260904084544 | 79 | 31 | 0.0 | 0.0 | 0.00 | 0.00 | 0.00 | 77 | 1014.3 |
| 20260904083048 | 79 | 250 | 0.0 | 0.0 | 0.00 | 0.00 | 0.00 | 77 | 1014.1 |
| 20260904081542 | 79 | 267 | 0.0 | 0.0 | 0.00 | 0.00 | 0.00 | 76 | 1013.9 |
| 20260904080041 | 79 | 338 | 0.0 | 0.0 | 0.00 | 0.00 | 0.00 | 76 | 1013.8 |
| 20260904074547 | 80 | 325 | 0.0 | 0.0 | 0.00 | 0.00 | 0.00 | 75 | 1013.7 |
| 20260904073047 | 80 | 248 | 0.0 | 0.0 | 0.00 | 0.00 | 0.00 | 75 | 1013.6 |
| 20260904071537 | 80 | 313 | 0.0 | 2.0 | 0.00 | 0.00 | 0.00 | 75 | 1013.6 |
| 20260904070035 | 81 | 249 | 0.0 | 5.0 | 0.00 | 0.00 | 0.00 | 74 | 1013.7 |
| 20260904064535 | 81 | 248 | 0.0 | 8.0 | 0.00 | 0.00 | 0.00 | 74 | 1013.6 |
| 20260904063033 | 81 | 5 | 0.0 | 2.0 | 0.00 | 0.00 | 0.00 | 74 | 1013.8 |
| 20260904061531 | 81 | 244 | 0.0 | 1.0 | 0.00 | 0.00 | 0.00 | 73 | 1014.1 |
| 20260904060040 | 82 | 220 | 0.0 | 0.0 | 0.00 | 0.00 | 0.00 | 72 | 1014.6 |
| 20260904054538 | 82 | 234 | 0.0 | 0.0 | 0.00 | 0.00 | 0.00 | 71 | 1014.8 |
| 20260904053035 | 82 | 221 | 0.0 | 2.0 | 0.00 | 0.00 | 0.00 | 70 | 1015.1 |
| 20260904051524 | 83 | 252 | 0.0 | 1.0 | 0.00 | 0.00 | 0.00 | 69 | 1015.3 |
| 20260904050030 | 83 | 248 | 0.0 | 3.0 | 0.00 | 0.00 | 0.00 | 68 | 1015.6 |
| 20260904044515 | 84 | 293 | 0.0 | 1.0 | 0.00 | 0.00 | 0.00 | 66 | 1015.5 |
| 20260904043020 | 85 | 279 | 0.0 | 9.0 | 0.00 | 0.00 | 0.00 | 65 | 1015.7 |
| 20260904041510 | 85 | 227 | 2.0 | 7.0 | 0.00 | 0.00 | 0.00 | 64 | 1015.7 |
| 20260904040009 | 85 | 250 | 3.0 | 7.0 | 0.00 | 0.00 | 0.00 | 62 | 1015.7 |